Wind_Speed
23 22 22 21 23 22 21 21 19 14 13 16 16 17 18 18 18 18 18 16 15 16 17 17 17 16 15 14 13 13 12 12 11 11 12 12 12 12 12 13 13 11 10
20 24 22 24 19 17 16 11 11 12 11 14 16 16 17 18 17 17 17 17 16 17 16 16 16 15 14 13 15 15 14 12 11 11 12 11 12 12 12 12 12 11 11
21 19 17 21 19 17 14 10 11 12 14 16 16 16 16 16 15 16 17 16 16 17 16 15 15 14 13 13 14 13 13 12 12 12 11 11 11 11 11 11 11 10 10
14 17 16 16 15 13 10 9 11 12 14 15 15 15 14 14 14 15 16 16 18 17 16 16 15 14 13 13 13 13 13 13 12 12 11 11 10 12 11 11 10 10 10
10 12 11 11 9 8 5 7 10 12 13 14 14 13 14 13 14 15 16 17 18 15 17 14 14 15 16 14 13 13 12 12 13 14 12 13 13 13 13 13 13 13 12
7 5 4 5 6 6 6 8 10 13 14 14 14 13 12 12 13 14 16 16 16 15 14 15 12 13 14 13 12 12 12 14 16 16 16 15 15 15 15 14 14 13 14
8 6 5 6 7 9 10 11 12 13 14 13 13 13 12 12 12 13 14 14 14 14 12 12 12 12 13 14 13 13 15 17 17 18 17 16 15 15 14 13 12 12 12
11 9 8 9 10 11 12 14 14 13 13 12 12 12 12 11 11 13 13 13 12 12 12 12 12 13 13 14 15 16 17 17 16 16 15 14 13 13 12 11 11 10 10
13 12 11 11 12 13 15 15 14 13 13 13 12 12 12 12 12 11 11 12 12 11 12 13 11 14 15 16 16 16 15 14 14 14 12 12 11 12 11 11 10 10 10
13 14 14 12 13 14 16 15 14 13 13 12 12 12 12 12 12 12 12 11 11 11 12 13 13 14 15 16 15 14 13 12 12 11 11 11 12 13 12 11 11 11 11
13 14 15 14 15 16 15 15 13 12 12 13 13 13 13 13 12 12 12 11 12 11 12 14 15 16 16 14 13 11 11 11 13 12 13 13 14 14 14 13 12 12 12
15 15 15 15 17 17 16 14 12 13 13 14 14 14 13 13 12 12 12 12 13 13 14 16 16 16 15 13 12 12 13 14 15 15 15 16 17 17 16 14 15 16 16
17 16 16 17 17 16 16 14 13 13 13 13 12 12 11 11 12 12 12 12 12 12 14 15 17 16 14 12 12 13 14 15 15 15 17 18 20 19 18 19 20 20 20
16 17 18 19 16 15 14 12 11 12 11 12 11 12 12 10 10 10 11 12 12 13 14 15 16 14 13 13 13 13 15 16 17 18 20 20 21 21 21 21 21 20 20
15 17 19 18 16 15 14 11 12 11 11 10 10 11 10 7 8 9 10 12 11 15 16 17 16 13 12 13 13 12 15 18 18 21 20 20 20 21 20 19 18 17 18
14 15 17 16 15 15 13 12 12 13 12 11 9 7 8 5 10 8 12 12 15 16 17 18 16 13 12 12 12 13 14 16 18 19 19 18 18 18 17 16 15 15 16
14 14 15 15 15 12 11 12 12 14 13 10 10 7 13 12 8 10 13 15 14 16 18 18 15 13 12 11 12 14 14 14 15 16 16 16 16 15 14 13 14 15 16
12 15 14 14 13 12 11 12 12 14 11 11 10 9 11 8 7 9 11 14 13 15 16 15 13 13 12 11 12 14 14 13 13 13 13 12 12 12 12 12 13 15 16
11 13 13 13 14 13 11 12 11 13 12 10 9 10 9 10 9 11 10 13 15 15 16 14 12 12 12 11 11 13 12 11 11 10 10 9 9 9 10 11 11 12 12
9 13 14 13 15 17 12 10 11 12 11 9 9 9 12 11 13 11 10 15 15 15 15 13 12 11 10 10 9 10 10 10 9 8 7 6 5 5 6 7 8 7 7
6 9 12 12 14 17 12 11 11 10 9 8 8 9 12 15 10 8 12 14 12 14 14 12 12 11 11 10 8 8 9 8 6 3 2 1 1 0 2 3 4 4 8
7 8 12 14 14 16 14 12 14 12 9 8 8 9 9 10 11 10 11 13 10 11 12 12 12 11 11 10 9 8 8 8 6 4 2 2 3 4 3 3 6 9 10
8 7 13 15 16 16 17 17 14 12 10 10 8 9 9 8 8 10 11 13 14 10 12 12 13 11 10 9 9 9 9 7 6 5 5 5 6 7 8 9 10 12 11
9 8 15 17 19 19 16 16 13 11 9 10 9 9 10 8 9 11 12 13 13 12 13 14 13 12 11 10 9 10 12 10 10 10 10 10 10 10 11 11 12 14 14
12 8 13 19 19 19 17 16 14 12 12 10 10 9 9 8 9 10 10 16 11 13 15 15 16 12 13 12 12 12 12 12 12 11 11 10 11 11 11 11 14 16 16
15 12 12 17 20 20 20 18 15 14 12 10 8 8 8 8 8 10 11 13 12 9 11 11 15 15 15 14 15 17 15 14 14 15 15 14 13 13 13 14 13 17 19
Wind_Direction
139 128 123 111 99 97 90 94 88 89 103 111 112 111 118 122 115 110 107 108 106 103 102 101 98 99 101 100 104 107 107 102 95 87 85 83 83 83 85 87 92 97 102
143 128 124 111 108 95 102 110 106 122 122 120 119 125 118 119 117 111 108 105 103 104 103 104 106 108 106 103 105 106 105 99 93 86 82 84 85 84 84 86 88 89 91
149 111 113 108 109 107 102 105 103 114 124 125 123 117 117 117 113 109 107 105 108 104 103 106 107 106 105 104 104 104 98 94 94 88 84 80 83 84 85 87 88 89 88
133 118 119 119 112 102 85 98 101 107 113 114 119 120 120 115 112 108 109 110 108 109 103 105 109 110 104 102 101 103 100 97 96 92 88 88 89 87 85 86 87 87 90
124 125 124 120 108 107 97 113 112 111 114 116 119 117 115 112 113 112 112 115 118 117 105 106 107 103 103 100 101 99 99 103 100 96 95 89 85 87 89 88 88 90 90
147 149 145 131 126 122 122 125 119 116 116 122 122 119 118 120 118 117 117 119 121 127 128 111 109 101 100 101 98 98 103 102 101 100 95 96 97 96 93 91 88 87 85
164 168 157 153 142 136 136 132 123 117 117 112 114 119 123 122 123 115 117 122 125 131 128 116 109 107 102 97 98 103 105 103 104 101 102 99 97 95 93 90 89 82 80
163 157 153 142 138 139 138 135 128 125 117 119 118 121 118 117 117 110 120 130 132 131 126 120 111 113 104 99 105 108 107 108 107 105 101 102 100 93 88 83 80 81 80
161 159 155 146 140 140 139 137 131 128 129 126 123 121 118 117 118 121 125 131 132 134 127 125 119 112 108 112 114 112 111 111 105 102 105 104 100 93 87 83 80 77 73
150 154 155 144 141 142 139 140 136 133 128 123 119 119 117 119 120 123 125 129 135 130 134 132 121 115 116 118 118 117 117 110 107 108 106 106 98 92 89 84 78 77 77
144 146 146 142 141 141 141 138 135 135 128 125 125 125 125 121 121 123 124 127 128 126 132 126 119 120 121 122 117 115 109 110 106 108 107 102 97 92 88 84 84 82 81
142 142 140 144 145 143 141 137 135 134 126 127 128 132 130 130 126 121 123 127 126 127 126 125 123 123 126 121 115 109 109 107 108 108 105 98 93 91 91 92 89 86 84
140 139 142 146 143 142 141 140 139 138 130 128 127 132 134 132 131 128 122 118 123 123 127 130 128 130 126 118 114 115 112 109 107 104 98 96 96 99 99 95 92 89 86
142 141 145 147 147 145 139 138 136 138 140 138 135 137 134 131 131 130 127 121 115 133 137 133 131 133 126 122 120 118 117 111 108 105 100 101 101 99 95 92 88 86 83
145 146 151 156 154 148 137 135 140 144 151 155 156 156 149 144 155 146 154 134 129 138 142 141 139 136 133 129 126 123 120 115 115 109 107 104 102 101 99 97 94 89 84
149 150 158 160 156 149 144 141 144 146 152 158 157 173 168 161 161 153 155 147 144 143 144 145 142 141 139 133 128 126 121 121 117 112 110 109 106 104 102 97 92 84 78
156 159 160 167 164 159 153 149 153 147 158 159 151 120 150 132 130 144 148 145 140 143 147 150 145 144 140 138 136 129 125 121 116 117 115 111 112 110 103 94 83 76 68
142 166 163 167 167 164 157 157 161 165 164 160 170 151 152 142 158 148 145 154 143 146 148 151 147 143 145 151 146 138 132 128 122 120 114 114 111 105 95 84 78 70 62
143 158 170 171 173 172 162 166 163 158 161 156 157 159 157 159 154 146 137 149 143 146 147 151 146 147 160 166 154 145 142 140 132 129 128 125 119 112 102 87 75 66 59
149 157 169 178 181 180 180 174 158 166 164 159 152 145 149 155 154 146 139 143 145 147 149 156 152 155 175 179 165 156 157 158 155 153 150 146 134 109 98 86 68 50 33
142 171 172 179 184 185 185 177 171 170 172 161 154 161 156 163 162 152 167 156 157 163 162 165 165 167 178 189 186 170 169 177 174 192 197 215 265 141 92 50 46 6 356
154 172 182 177 173 180 167 178 174 167 172 167 158 168 158 182 200 194 174 170 177 184 180 181 181 179 185 193 196 188 173 179 193 214 248 282 308 318 327 340 334 323 323
165 167 186 181 178 182 185 181 185 180 180 179 172 173 180 182 181 185 189 188 191 199 202 206 190 194 202 202 205 207 208 210 224 245 260 280 290 295 297 300 311 318 312
185 178 179 185 187 182 186 192 187 179 177 190 188 187 187 186 185 183 187 188 201 207 206 214 206 202 217 215 208 215 225 228 233 254 269 281 280 287 294 297 295 300 310
194 184 188 190 189 190 190 195 200 199 196 199 178 181 192 192 201 202 203 213 213 216 217 214 219 229 219 231 227 224 232 243 248 254 260 268 271 276 281 287 299 298 308
203 201 195 190 190 189 193 193 192 191 197 189 189 197 200 211 218 221 218 213 224 223 221 222 228 229 222 237 249 243 239 248 259 266 271 269 271 283 289 291 299 311 315
Height
3186 3186 3188 3188 3188 3186 3187 3189 3192 3194 3195 3195 3195 3195 3196 3198 3199 3199 3200 3201 3201 3202 3203 3203 3204 3205 3206 3207 3208 3208 3209 3209 3210 3210 3210 3210 3210 3210 3210 3210 3211 3212 3212
3187 3189 3190 3191 3192 3192 3193 3196 3196 3198 3198 3198 3198 3200 3199 3199 3200 3201 3202 3202 3203 3205 3206 3206 3207 3208 3208 3209 3209 3210 3210 3211 3211 3211 3212 3212 3212 3212 3212 3213 3213 3214 3214
3189 3191 3193 3194 3195 3195 3195 3197 3197 3199 3200 3200 3200 3201 3201 3201 3202 3203 3204 3205 3207 3208 3208 3209 3210 3210 3211 3211 3212 3212 3213 3213 3214 3214 3214 3214 3214 3214 3214 3215 3215 3215 3216
3192 3193 3196 3196 3197 3196 3198 3199 3200 3200 3201 3201 3202 3203 3203 3204 3205 3206 3207 3208 3209 3210 3211 3211 3212 3212 3213 3214 3214 3215 3215 3215 3216 3216 3217 3216 3216 3216 3217 3217 3217 3217 3218
3193 3195 3197 3198 3199 3199 3201 3201 3202 3202 3203 3204 3205 3205 3206 3206 3207 3208 3209 3210 3211 3213 3213 3214 3214 3214 3214 3216 3217 3217 3217 3218 3218 3218 3218 3218 3218 3218 3219 3219 3219 3220 3219
3194 3196 3197 3199 3199 3201 3202 3203 3204 3206 3206 3207 3207 3207 3207 3209 3209 3210 3212 3212 3213 3215 3215 3216 3216 3217 3217 3218 3219 3219 3220 3221 3220 3220 3221 3220 3221 3221 3222 3222 3222 3222 3222
3196 3197 3198 3199 3201 3203 3204 3205 3206 3207 3208 3209 3208 3209 3210 3211 3212 3213 3214 3214 3215 3217 3217 3218 3219 3220 3220 3220 3221 3222 3223 3222 3222 3222 3222 3223 3224 3224 3224 3225 3225 3224 3224
3197 3199 3200 3202 3203 3204 3205 3207 3208 3209 3210 3210 3211 3211 3212 3213 3214 3215 3215 3217 3218 3218 3220 3220 3222 3223 3223 3223 3224 3225 3225 3225 3225 3225 3225 3226 3226 3226 3226 3226 3226 3226 3225
3198 3200 3202 3203 3204 3206 3207 3208 3209 3211 3211 3212 3213 3214 3214 3215 3216 3217 3218 3219 3219 3220 3221 3223 3224 3224 3225 3227 3227 3227 3227 3227 3227 3227 3227 3227 3227 3227 3227 3228 3227 3228 3228
3198 3200 3202 3204 3205 3207 3209 3210 3212 3213 3214 3213 3215 3216 3217 3217 3218 3219 3220 3221 3222 3223 3224 3226 3227 3227 3229 3230 3229 3229 3229 3230 3230 3229 3229 3229 3229 3229 3229 3229 3230 3230 3229
3198 3200 3203 3205 3206 3208 3210 3212 3213 3216 3215 3216 3217 3218 3219 3219 3220 3221 3222 3223 3224 3226 3227 3228 3230 3231 3232 3231 3232 3232 3232 3232 3232 3231 3231 3231 3231 3231 3232 3232 3232 3231 3231
3200 3202 3204 3206 3208 3210 3212 3213 3215 3216 3218 3218 3219 3220 3220 3220 3221 3223 3224 3225 3227 3228 3229 3231 3232 3234 3234 3234 3234 3234 3234 3234 3234 3233 3233 3234 3233 3234 3234 3233 3234 3234 3233
3201 3203 3205 3207 3210 3211 3213 3215 3217 3218 3220 3220 3220 3221 3222 3223 3224 3225 3226 3227 3229 3230 3232 3233 3235 3236 3236 3237 3237 3237 3237 3237 3237 3236 3237 3237 3237 3236 3236 3237 3237 3237 3236
3203 3204 3207 3209 3211 3213 3215 3217 3219 3220 3221 3221 3222 3223 3224 3225 3226 3227 3228 3229 3231 3232 3234 3236 3238 3238 3239 3239 3240 3240 3240 3240 3240 3240 3240 3240 3240 3241 3241 3241 3241 3240 3240
3205 3206 3208 3211 3214 3216 3217 3219 3220 3221 3222 3223 3224 3225 3226 3226 3227 3228 3229 3231 3232 3234 3236 3238 3240 3241 3242 3242 3243 3243 3243 3243 3243 3243 3243 3244 3245 3245 3244 3243 3243 3242 3242
3206 3208 3209 3212 3215 3217 3219 3220 3221 3222 3223 3224 3225 3226 3227 3227 3228 3230 3230 3232 3233 3235 3237 3240 3242 3243 3244 3245 3246 3246 3246 3246 3246 3246 3247 3247 3247 3248 3247 3246 3246 3246 3246
3207 3209 3211 3213 3216 3217 3219 3221 3222 3223 3224 3225 3227 3227 3228 3229 3230 3231 3232 3234 3236 3238 3239 3241 3243 3245 3247 3248 3248 3249 3249 3249 3250 3249 3250 3250 3249 3249 3250 3249 3249 3249 3249
3207 3209 3212 3214 3216 3218 3220 3222 3224 3224 3225 3226 3228 3230 3231 3231 3232 3233 3234 3236 3238 3240 3242 3244 3246 3248 3250 3250 3251 3251 3252 3252 3253 3253 3254 3253 3253 3252 3252 3252 3252 3251 3250
3207 3209 3212 3215 3217 3219 3221 3223 3224 3225 3226 3227 3229 3230 3231 3232 3233 3235 3236 3238 3240 3242 3244 3246 3249 3251 3252 3252 3253 3254 3255 3254 3255 3256 3256 3255 3255 3254 3254 3254 3254 3253 3251
3207 3209 3211 3215 3217 3219 3221 3223 3225 3226 3228 3229 3230 3231 3232 3233 3235 3237 3238 3240 3242 3244 3246 3249 3251 3253 3254 3255 3256 3257 3257 3257 3256 3257 3257 3257 3257 3257 3257 3255 3255 3253 3251
3207 3208 3210 3214 3216 3218 3221 3223 3225 3227 3228 3230 3232 3233 3234 3235 3236 3238 3240 3242 3244 3246 3248 3251 3253 3255 3255 3256 3257 3258 3259 3258 3258 3259 3259 3259 3259 3258 3258 3257 3255 3254 3252
3207 3208 3210 3212 3216 3219 3221 3224 3226 3227 3229 3230 3232 3234 3235 3236 3237 3239 3241 3243 3245 3247 3249 3251 3253 3255 3255 3256 3257 3258 3260 3260 3259 3259 3259 3259 3260 3259 3259 3258 3256 3254 3253
3207 3208 3209 3212 3214 3217 3220 3222 3225 3227 3229 3231 3233 3234 3236 3237 3238 3239 3241 3243 3245 3248 3250 3252 3254 3255 3256 3257 3258 3259 3260 3260 3260 3260 3259 3259 3259 3259 3258 3257 3256 3254 3252
3206 3207 3208 3211 3213 3215 3218 3222 3225 3227 3229 3231 3232 3234 3235 3236 3238 3240 3241 3243 3245 3247 3248 3251 3252 3254 3255 3256 3257 3258 3259 3260 3260 3261 3260 3259 3258 3258 3257 3256 3255 3253 3252
3204 3206 3208 3209 3211 3214 3217 3220 3223 3225 3226 3229 3230 3232 3234 3236 3237 3239 3240 3242 3244 3245 3246 3248 3250 3252 3253 3255 3256 3257 3257 3257 3258 3259 3259 3259 3258 3257 3255 3254 3253 3252 3250
3201 3204 3205 3207 3209 3212 3216 3219 3221 3223 3225 3227 3230 3231 3233 3234 3235 3237 3239 3240 3242 3243 3244 3245 3247 3249 3250 3252 3254 3255 3255 3255 3256 3256 3256 3256 3256 3255 3253 3251 3250 3249 3247